Погода в Еловке

Россия / Томская область     55°56′44″N   83°43′49″E
темп.,
°C
ветер,
м/с
пор.,
м/с
влажн.,
%
обл.,
%
осадки,
мм/ч
давл.,
гПа
погр.,
м
14 мая, пт
пт1401:00+10с377619 0.1 1015231
04:00+9ссз496274 0.0 1016320
07:00+8ссз597292 0.0 1018348
10:00+11ссз6766100 0.0 10201103
13:00+12ссз4648100 0.0 10211332
16:00+16ссз5630100 0.0 10211591
19:00+15сз463290 0.0 10211533
22:00+11зсз2242100 0.0 102212
15 мая, сб
сб1501:00+11зюз364464 0.0 1022121
04:00+10юз41148100 0.0 1021254
07:00+11юз5134687 0.0 1020403
10:00+16зюз7133889 0.1 1019783
13:00+14зюз71469100 0.1 1019535
16:00+21зюз794260 0.0 10171292
19:00+21з61156100 0.8 10151017
22:00+16зюз4108573 1.5 1015225
16 мая, вс
вс1601:00+13зюз3689100 1.9 1014103
04:00+13ююз2291100 0.3 101315
07:00+14зюз279099 0.6 1012205
10:00+20зюз476074 0.1 1011754
13:00+24зсз694457 0.1 10101937
16:00+21сз61057100 0.1 10101196
19:00+19с686483 0.1 1011918
22:00+14ссв3777100 0.0 1013230
17 мая, пн
пн1701:00+13св1280100 0.0 1014116
04:00+11ююз2292100 0.0 101334
07:00+12ююв1384100 0.1 1013108
10:00+16юз357123 0.0 1012595
13:00+20сз6856100 0.8 10111458
16:00+20ссз695253 0.1 10121794
19:00+18ссв565915 0.1 1013710
22:00+12всв378147 0.0 1013197
18 мая, вт
вт1801:00+10юв3688100 0.0 1012159
04:00+11ю31092100 0.6 1009342
07:00+14юз3129169 4.4 1004445
10:00+16ссз5881100 0.1 1005952
13:00+14с5681100 0.1 1008648
16:00+11св458099 0.0 1010639
19:00+11всв457599 0.0 1010684
22:00+10всв3678100 0.0 1010536